Simultaneous Nadir Overpasses (SNOs) Predictions

Prediction of SNOs between LANDSAT-8 and NOAA-19 Satellite Orbit:

Table of predicted SNOs for the next 14.0 days since TLE Epoch: 10/30/2021
Index Date (LANDSAT-8) Time (LANDSAT-8) Lat,Lon (LANDSAT-8) SZA (LANDSAT-8 ) Date (NOAA-19) Time (NOAA-19) Lat,Lon (NOAA-19) SZA (NOAA-19 ) Distance(km) Time Diff (sec)
1 10/31/2021 08:40:10 80.58, 83.05 96.62 10/31/2021 08:39:28 80.58, 83.18 96.61 2.41 42
2 10/31/2021 09:29:37 -80.58,-109.37 83.38 10/31/2021 09:30:25 -80.56,-109.30 83.37 1.66 48
3 11/02/2021 15:03:20 80.59, -12.69 97.35 11/02/2021 15:03:33 80.57, -12.70 97.34 1.38 13
4 11/04/2021 20:37:03 -80.58, 83.86 81.98 11/04/2021 20:36:37 -80.59, 83.70 81.99 2.89 26
5 11/04/2021 21:26:29 80.59,-108.47 98.05 11/04/2021 21:27:37 80.57,-108.62 98.05 3.10 68
6 11/07/2021 02:10:46 80.58,-179.59 98.69 11/07/2021 02:09:43 80.59,-179.49 98.68 2.11 63
7 11/07/2021 03:00:13 -80.58, -11.95 81.30 11/07/2021 03:00:42 -80.58, -12.03 81.30 1.51 29
8 11/09/2021 08:33:56 80.57, 84.54 99.32 11/09/2021 08:33:48 80.59, 84.53 99.34 1.99 8
9 11/11/2021 14:07:39 -80.60,-178.66 80.03 11/11/2021 14:06:53 -80.59,-178.51 80.04 2.84 46



Historial Predications of SNOs between LANDSAT-8 and NOAA-19
